Ashtabula, OH

3:22 PM EST on December 15, 2019 (GMT -0500)
Ashtabula County

Weather History for KHZY - September, 2019

Change the Weather History Date:

Friday, September 13, 2019

  Actual Average (KGKJ) Record (KGKJ)
Temperature  
Mean Temperature 71 °F -  
Max Temperature 84 °F 73 °F 93 °F (1952)
Min Temperature 60 °F 49 °F 35 °F (1964)
Cooling Degree Days 6    
Growing Degree Days 21 (Base 50)    
Moisture  
Dew Point 66 °F    
Average Humidity 89    
Maximum Humidity 100    
Minimum Humidity 69    
Precipitation  
Precipitation 0.89 in - - ()
Sea Level Pressure  
Sea Level Pressure 30.14 in    
Wind  
Wind Speed 8 mph (SSE)    
Max Wind Speed 17 mph    
Max Gust Speed 28 mph    
Visibility 8 miles    
Events Rain , Thunderstorm    
Averages and records for this station are not official NWS values.
T = Trace of Precipitation, MM = Missing Value Source: NWS Daily Summary

Daily Weather History Graph

Daily Weather History Graph

Search for Another Location

Airport or City:

Astronomy

Sep. 13, 2019 Rise Set
Actual Time 7:00 AM EDT 7:36 PM EDT
Civil Twilight 6:32 AM EDT 8:04 PM EDT
Nautical Twilight 5:59 AM EDT 8:37 PM EDT
Astronomical Twilight 5:25 AM EDT 9:11 PM EDT
Moon 7:49 PM EDT (9/13) 6:14 AM EDT (9/13)
Length of Visible Light 13h 31m
Length of Day
12h 35m
Full, 100% of the Moon is Illuminated
Sep 13
Full
Sep 14
Full
Sep 21
Last Quarter
Sep 28
New
Oct 5
First Quarter

Hourly Weather History & Observations

Time (EDT) Temp. Heat Index Dew Point Humidity Pressure Visibility Wind Dir Wind Speed Gust Speed Precip Events Conditions
12:36 AM 61.0 °F - 61.0 °F 100% 30.24 in 10.0 mi NE 3.5 mph - N/A   Scattered Clouds
12:53 AM 60.1 °F - 60.1 °F 100% 30.23 in 10.0 mi East 3.5 mph - N/A   Clear
1:33 AM 60.1 °F - 60.1 °F 100% 30.23 in 10.0 mi Calm Calm - N/A   Mostly Cloudy
1:53 AM 61.0 °F - 61.0 °F 100% 30.22 in 10.0 mi East 4.6 mph - N/A   Overcast
2:53 AM 62.1 °F - 62.1 °F 100% 30.20 in 10.0 mi East 3.5 mph - N/A   Overcast
3:53 AM 64.0 °F - 62.1 °F 93% 30.18 in 10.0 mi SE 6.9 mph - N/A   Overcast
4:53 AM 64.9 °F - 63.0 °F 93% 30.19 in 10.0 mi SSE 5.8 mph - N/A   Overcast
5:44 AM 64.9 °F - 63.0 °F 93% 30.20 in 10.0 mi SE 4.6 mph - N/A   Overcast
5:53 AM 64.9 °F - 63.0 °F 93% 30.20 in 10.0 mi SE 5.8 mph - N/A   Overcast
6:53 AM 64.0 °F - 63.0 °F 96% 30.20 in 10.0 mi SSE 5.8 mph - N/A   Overcast
7:53 AM 64.9 °F - 63.0 °F 93% 30.20 in 10.0 mi SSE 8.1 mph - N/A   Overcast
8:53 AM 66.9 °F - 64.9 °F 93% 30.20 in 10.0 mi SSE 8.1 mph - N/A   Mostly Cloudy
9:06 AM 68.0 °F - 64.9 °F 90% 30.21 in 10.0 mi SE 8.1 mph 17.3 mph N/A   Scattered Clouds
9:53 AM 70.0 °F - 66.0 °F 87% 30.20 in 10.0 mi SSE 13.8 mph 19.6 mph N/A   Partly Cloudy
10:53 AM 73.0 °F - 66.9 °F 81% 30.18 in 10.0 mi SSE 11.5 mph 21.9 mph N/A   Scattered Clouds
11:53 AM 77.0 °F - 69.1 °F 76% 30.17 in 10.0 mi South 13.8 mph - N/A   Mostly Cloudy
12:53 PM 79.0 °F - 70.0 °F 74% 30.15 in 10.0 mi South 12.7 mph 17.3 mph N/A   Clear
1:53 PM 80.1 °F 83.6 °F 71.1 °F 74% 30.14 in 10.0 mi South 12.7 mph 21.9 mph N/A   Mostly Cloudy
2:53 PM 82.9 °F 88.0 °F 72.0 °F 69% 30.11 in 10.0 mi South 13.8 mph 23.0 mph N/A   Partly Cloudy
3:53 PM 82.9 °F 88.0 °F 72.0 °F 69% 30.08 in 10.0 mi SSE 11.5 mph 23.0 mph N/A   Clear
4:53 PM 82.0 °F 87.4 °F 73.0 °F 74% 30.06 in 10.0 mi SSE 10.4 mph - N/A   Partly Cloudy
5:53 PM 82.0 °F 86.7 °F 72.0 °F 71% 30.06 in 10.0 mi SSE 13.8 mph 24.2 mph N/A   Clear
6:53 PM 78.1 °F - 71.1 °F 79% 30.06 in 10.0 mi SE 12.7 mph - N/A   Partly Cloudy
7:53 PM 75.0 °F - 68.0 °F 79% 30.05 in 10.0 mi SSE 17.3 mph 23.0 mph N/A   Clear
8:50 PM 73.4 °F - 66.2 °F 78% 30.09 in 10.0 mi SSE 12.7 mph 27.6 mph N/A Thunderstorm Clear
8:53 PM 72.0 °F - 64.9 °F 78% 30.09 in 10.0 mi South 16.1 mph 27.6 mph N/A Thunderstorm Clear
8:59 PM 73.0 °F - 66.0 °F 79% 30.15 in 10.0 mi NW 12.7 mph 21.9 mph N/A Thunderstorm Thunderstorm
9:22 PM 73.0 °F - 66.0 °F 79% 30.12 in 10.0 mi ESE 12.7 mph 17.3 mph N/A Thunderstorm Thunderstorm
9:47 PM 69.8 °F - 66.2 °F 88% 30.13 in 1.8 mi South 11.5 mph 17.3 mph 0.21 in Rain , Thunderstorm Heavy Thunderstorms and Rain
9:53 PM 69.1 °F - 66.0 °F 90% 30.10 in 1.5 mi SE 12.7 mph - 0.26 in Rain , Thunderstorm Heavy Thunderstorms and Rain
9:56 PM 68.0 °F - 66.0 °F 93% 30.11 in 2.5 mi SE 10.4 mph - 0.01 in Rain , Thunderstorm Thunderstorms and Rain
10:01 PM 68.0 °F - 66.0 °F 93% 30.11 in 6.0 mi SE 10.4 mph - 0.01 in Rain , Thunderstorm Light Rain
10:29 PM 68.0 °F - 66.9 °F 96% 30.13 in 6.0 mi SSE 4.6 mph - 0.04 in Rain , Thunderstorm Thunderstorms and Rain
10:46 PM 66.9 °F - 66.0 °F 97% 30.10 in 2.5 mi SE 12.7 mph - 0.16 in Rain , Thunderstorm Heavy Rain
10:53 PM 66.9 °F - 66.0 °F 97% 30.08 in 4.0 mi SE 15.0 mph - 0.18 in Rain , Thunderstorm Light Rain
11:10 PM 66.9 °F - 66.0 °F 97% 30.13 in 3.0 mi SSW 8.1 mph - 0.10 in Rain Heavy Rain
11:12 PM 66.9 °F - 66.0 °F 97% 30.13 in 2.0 mi South 8.1 mph - 0.17 in Rain , Thunderstorm Heavy Rain
11:17 PM 66.9 °F - 66.9 °F 100% 30.13 in 1.0 mi South 8.1 mph - 0.29 in Rain , Thunderstorm Heavy Rain
11:24 PM 66.9 °F - 66.9 °F 100% 30.13 in 1.5 mi South 6.9 mph - 0.39 in Rain , Thunderstorm Heavy Rain
11:32 PM 66.9 °F - 66.0 °F 97% 30.13 in 3.0 mi SSE 8.1 mph - 0.42 in Rain , Thunderstorm Rain
11:51 PM 66.2 °F - 64.4 °F 94% 30.11 in 7.0 mi SE 6.9 mph - 0.45 in Rain , Thunderstorm Light Thunderstorms and Rain
11:53 PM 66.0 °F - 64.9 °F 96% 30.10 in 8.0 mi SE 6.9 mph - 0.45 in Rain , Thunderstorm Light Thunderstorms and Rain